This is the latest recevied weather packets stored in our database for station/object KD9NSC. If no packets are shown the sender has not sent any weather packets the latest 10 day(s).
| Time | Temp. | Humidity | Pressure | Rain* | Wind** | Luminosity | Snow |
|---|---|---|---|---|---|---|---|
| 1777770918 | 6.67° C | 71% | 1018.3 hPa | 0 mm | - | 0 W/m² | - |
| 1777770615 | 7.22° C | 66% | 1018.4 hPa | 0 mm | - | 0 W/m² | - |
| 1777770311 | 7.22° C | 65% | 1018.4 hPa | 0 mm | - | 0 W/m² | - |
| 1777770009 | 7.22° C | 64% | 1018.4 hPa | 0 mm | - | 0 W/m² | - |
| 1777769706 | 7.78° C | 63% | 1018.4 hPa | 0 mm | - | 0 W/m² | - |
| 1777769403 | 7.78° C | 64% | 1018.5 hPa | 0 mm | - | 0 W/m² | - |
| 1777769099 | 7.78° C | 64% | 1018.5 hPa | 0 mm | - | 1 W/m² | - |
| 1777768797 | 8.33° C | 64% | 1018.5 hPa | 0 mm | - | 1 W/m² | - |
| 1777768494 | 8.33° C | 61% | 1018.4 hPa | 0 mm | - | 2 W/m² | - |
| 1777768191 | 8.33° C | 63% | 1018.5 hPa | 0 mm | - | 3 W/m² | - |
| 1777767888 | 8.89° C | 63% | 1018.5 hPa | 0 mm | - | 4 W/m² | - |
| 1777767584 | 8.89° C | 64% | 1018.4 hPa | 0 mm | - | 4 W/m² | - |
| 1777767281 | 8.89° C | 59% | 1018.7 hPa | 0 mm | - | 5 W/m² | - |
| 1777766978 | 8.89° C | 58% | 1018.7 hPa | 0 mm | - | 6 W/m² | - |
| 1777766675 | 8.89° C | 59% | 1018.7 hPa | 0 mm | - | 6 W/m² | - |
| 1777766373 | 9.44° C | 58% | 1018.7 hPa | 0 mm | - | 6 W/m² | - |
| 1777766069 | 9.44° C | 57% | 1018.5 hPa | 0 mm | - | 7 W/m² | - |
| 1777765767 | 10° C | 55% | 1018.8 hPa | 0 mm | - | 8 W/m² | - |
| 1777765463 | 10° C | 58% | 1019 hPa | 0 mm | - | 9 W/m² | - |
| 1777765160 | 10° C | 58% | 1018.9 hPa | 0 mm | - | 9 W/m² | - |
| 1777764855 | 10° C | 53% | 1018.9 hPa | 0 mm | - | 9 W/m² | - |
| 1777764553 | 10° C | 49% | 1018.9 hPa | 0 mm | - | 10 W/m² | - |
| 1777764249 | 10° C | 46% | 1018.8 hPa | 0 mm | - | 10 W/m² | - |
| 1777763946 | 10° C | 47% | 1019.1 hPa | 0 mm | - | 11 W/m² | - |
| 1777763644 | 10° C | 50% | 1019 hPa | 0 mm | - | 12 W/m² | - |
* Rain latest hour (hover to see other rain measurements)
** Current wind speed in m/s (hover to see current wind gust speed)